When you browse on this site, cookies collect data to enhance your experience and personalize the content and advertising you see.
Visit our Privacy Policy to learn more. By continuing to use the site, you agree to this use of cookies and data.
  • In Portugal
  • List of Countries
  • For 7 days
  • Water Temperature
  • Satellite Maps
  • Weather Map
  • Weather Widgets
  • user-avatar
    Login

    Hourly Weather Pamporovo

    Today, 21 January, Monday

    Time Temperature Precipitation Wind Pressure Humidity
    00:00 -4°C° 0 mm 1 mps 619 mmHg 88%
    01:00 -4°C° 0 mm 1 mps 619 mmHg 86%
    02:00 -4°C° 0 mm 1 mps 619 mmHg 86%
    03:00 -4°C° 0 mm 1 mps 619 mmHg 86%
    04:00 -6°C° 0 mm 1 mps 619 mmHg 86%
    05:00 -6°C° 0 mm 1 mps 619 mmHg 85%
    06:00 -6°C° 0 mm 1 mps 619 mmHg 86%
    07:00 -6°C° 0 mm 1 mps 619 mmHg 86%
    08:00 -6°C° 0 mm 1 mps 619 mmHg 86%
    09:00 -3°C° 0 mm 1 mps 620 mmHg 88%
    10:00 -1°C° 0 mm 1 mps 621 mmHg 89%
    11:00 0°C° 0 mm 1 mps 622 mmHg 90%
    12:00 +1°C° 0 mm 1 mps 622 mmHg 90%
    13:00 +1°C° 0 mm 1 mps 622 mmHg 90%
    14:00 +1°C° 0 mm 1 mps 622 mmHg 90%
    15:00 +1°C° 0.1 mm 1 mps 622 mmHg 92%
    16:00 0°C° 0.1 mm 1 mps 622 mmHg 94%
    17:00 -1°C° 0.1 mm 1 mps 622 mmHg 96%
    18:00 -1°C° 0.1 mm 1 mps 622 mmHg 96%
    19:00 -2°C° 0.1 mm 1 mps 622 mmHg 97%
    20:00 -2°C° 0.1 mm 1 mps 622 mmHg 98%
    21:00 -3°C° 0 mm 0 mps 622 mmHg 97%
    22:00 -4°C° 0 mm 0 mps 622 mmHg 97%
    23:00 -4°C° 0 mm 0 mps 622 mmHg 97%

    Tomorrow, 22 January, Tuesday

    Time Temperature Precipitation Wind Pressure Humidity
    00:00 -4°C° 0 mm 0 mps 622 mmHg 97%
    01:00 -4°C° 0 mm 0 mps 622 mmHg 98%
    02:00 -4°C° 0 mm 0 mps 622 mmHg 98%
    03:00 -3°C° 0.3 mm 1 mps 621 mmHg 98%
    04:00 -3°C° 0.3 mm 1 mps 621 mmHg 98%
    05:00 -3°C° 0.3 mm 1 mps 621 mmHg 98%
    06:00 -3°C° 0.2 mm 1 mps 621 mmHg 98%
    07:00 -3°C° 0.2 mm 1 mps 621 mmHg 98%
    08:00 -3°C° 0.2 mm 1 mps 621 mmHg 97%
    09:00 -2°C° 0.1 mm 1 mps 621 mmHg 97%
    10:00 -1°C° 0.1 mm 1 mps 621 mmHg 97%
    11:00 -3°C° 0.1 mm 2 mps 621 mmHg 96%
    12:00 -3°C° 0.2 mm 2 mps 621 mmHg 96%
    13:00 -3°C° 0.2 mm 2 mps 620 mmHg 97%
    14:00 -3°C° 0.2 mm 2 mps 620 mmHg 97%
    15:00 -3°C° 0.1 mm 2 mps 619 mmHg 97%
    16:00 -3°C° 0.1 mm 2 mps 619 mmHg 97%
    17:00 -3°C° 0.1 mm 2 mps 618 mmHg 97%
    18:00 -3°C° 0.2 mm 2 mps 618 mmHg 97%
    19:00 -3°C° 0.2 mm 2 mps 618 mmHg 96%
    20:00 -3°C° 0.2 mm 2 mps 617 mmHg 96%
    21:00 -3°C° 1 mm 2 mps 617 mmHg 97%
    22:00 -3°C° 1 mm 2 mps 617 mmHg 97%
    23:00 -3°C° 1 mm 2 mps 616 mmHg 98%

    Day after tomorrow, 23 January, Wednesday

    Time Temperature Precipitation Wind Pressure Humidity
    00:00 -2°C° 0.6 mm 2 mps 616 mmHg 98%
    01:00 -2°C° 0.6 mm 2 mps 616 mmHg 98%
    02:00 -2°C° 0.6 mm 3 mps 615 mmHg 99%
    03:00 -2°C° 0.1 mm 3 mps 615 mmHg 98%
    04:00 -2°C° 0.1 mm 3 mps 614 mmHg 98%
    05:00 -2°C° 0.1 mm 3 mps 614 mmHg 97%
    06:00 -2°C° 0 mm 3 mps 614 mmHg 97%
    07:00 -2°C° 0 mm 2 mps 614 mmHg 97%
    08:00 -3°C° 0 mm 2 mps 614 mmHg 97%
    09:00 -2°C° 0 mm 2 mps 614 mmHg 96%
    10:00 -1°C° 0 mm 2 mps 614 mmHg 95%
    11:00 -1°C° 0 mm 2 mps 615 mmHg 95%
    12:00 +1°C° 0 mm 2 mps 615 mmHg 93%
    13:00 0°C° 0 mm 3 mps 614 mmHg 92%
    14:00 0°C° 0 mm 3 mps 614 mmHg 91%
    15:00 -1°C° 0 mm 2 mps 614 mmHg 92%
    16:00 -1°C° 0 mm 2 mps 614 mmHg 93%
    17:00 -2°C° 0 mm 2 mps 613 mmHg 93%
    18:00 -2°C° 0.2 mm 2 mps 613 mmHg 94%
    19:00 -2°C° 0.2 mm 2 mps 613 mmHg 95%
    20:00 -2°C° 0.2 mm 2 mps 613 mmHg 96%
    21:00 -2°C° 1.2 mm 2 mps 613 mmHg 97%
    22:00 -2°C° 1.2 mm 2 mps 613 mmHg 97%
    23:00 -2°C° 1.2 mm 3 mps 613 mmHg 98%

    24 January, Thursday

    Time Temperature Precipitation Wind Pressure Humidity
    00:00 -2°C° 1.7 mm 2 mps 613 mmHg 98%
    01:00 -2°C° 1.7 mm 2 mps 613 mmHg 98%
    02:00 -2°C° 1.7 mm 2 mps 612 mmHg 98%
    03:00 -2°C° 2.8 mm 2 mps 612 mmHg 98%
    04:00 -2°C° 2.8 mm 2 mps 612 mmHg 99%
    05:00 0°C° 2.8 mm 1 mps 611 mmHg 99%
    06:00 0°C° 2.3 mm 1 mps 611 mmHg 99%
    07:00 0°C° 2.3 mm 1 mps 611 mmHg 98%
    08:00 -1°C° 2.3 mm 0 mps 611 mmHg 98%
    09:00 0°C° 4.8 mm 1 mps 611 mmHg 98%
    10:00 0°C° 4.8 mm 1 mps 611 mmHg 98%
    11:00 0°C° 4.8 mm 1 mps 611 mmHg 98%
    12:00 0°C° 5 mm 1 mps 610 mmHg 99%
    13:00 0°C° 5 mm 1 mps 610 mmHg 99%
    14:00 0°C° 5 mm 1 mps 610 mmHg 99%
    15:00 0°C° 1.9 mm 1 mps 610 mmHg 99%
    16:00 0°C° 1.9 mm 1 mps 609 mmHg 99%
    17:00 0°C° 1.9 mm 1 mps 609 mmHg 98%
    18:00 0°C° 1 mm 1 mps 610 mmHg 98%
    19:00 0°C° 0.9 mm 1 mps 610 mmHg 98%
    20:00 0°C° 0.9 mm 1 mps 610 mmHg 98%
    21:00 -1°C° 0.9 mm 1 mps 610 mmHg 98%
    22:00 -1°C° 0.9 mm 1 mps 611 mmHg 98%
    23:00 -1°C° 0.9 mm 1 mps 611 mmHg 98%

    25 January, Friday

    Time Temperature Precipitation Wind Pressure Humidity
    00:00 -1°C° 0.7 mm 1 mps 611 mmHg 98%
    01:00 -1°C° 0.7 mm 1 mps 611 mmHg 98%
    02:00 -1°C° 0.7 mm 1 mps 612 mmHg 98%
    03:00 -1°C° 0.9 mm 1 mps 612 mmHg 98%
    04:00 -1°C° 0.9 mm 1 mps 612 mmHg 99%
    05:00 -1°C° 0.9 mm 1 mps 612 mmHg 99%
    06:00 -1°C° 0 mm 1 mps 612 mmHg 99%
    07:00 -1°C° 0 mm 1 mps 612 mmHg 99%
    08:00 -1°C° 0 mm 1 mps 613 mmHg 98%
    09:00 -1°C° 0.2 mm 1 mps 613 mmHg 98%
    10:00 0°C° 0.2 mm 1 mps 613 mmHg 98%
    11:00 0°C° 0.2 mm 1 mps 613 mmHg 98%
    12:00 0°C° 4.3 mm 1 mps 613 mmHg 98%
    13:00 0°C° 4.3 mm 1 mps 612 mmHg 98%
    14:00 -1°C° 4.3 mm 1 mps 612 mmHg 99%
    15:00 0°C° 2.5 mm 1 mps 612 mmHg 99%
    16:00 0°C° 2.5 mm 1 mps 612 mmHg 99%
    17:00 -2°C° 2.5 mm 2 mps 611 mmHg 99%
    18:00 -2°C° 2.2 mm 2 mps 611 mmHg 99%
    19:00 -2°C° 2.2 mm 2 mps 611 mmHg 99%
    20:00 -2°C° 2.2 mm 2 mps 611 mmHg 99%
    21:00 0°C° 2.8 mm 1 mps 611 mmHg 99%
    22:00 0°C° 2.8 mm 1 mps 611 mmHg 99%
    23:00 -1°C° 2.8 mm 1 mps 611 mmHg 99%

    26 January, Saturday

    Time Temperature Precipitation Wind Pressure Humidity
    00:00 -1°C° 1.9 mm 1 mps 611 mmHg 99%
    01:00 -1°C° 1.9 mm 1 mps 611 mmHg 99%
    02:00 -1°C° 1.9 mm 1 mps 611 mmHg 99%
    03:00 -1°C° 0.9 mm 1 mps 611 mmHg 98%
    04:00 -2°C° 0.9 mm 1 mps 611 mmHg 98%
    05:00 -2°C° 0.9 mm 1 mps 611 mmHg 98%
    06:00 -2°C° 0.6 mm 1 mps 612 mmHg 97%
    07:00 -5°C° 0.6 mm 2 mps 612 mmHg 96%
    08:00 -5°C° 0.6 mm 2 mps 612 mmHg 96%
    09:00 -5°C° 0.6 mm 2 mps 612 mmHg 95%
    10:00 -5°C° 0.6 mm 2 mps 613 mmHg 94%
    11:00 -5°C° 0.6 mm 2 mps 613 mmHg 93%
    12:00 -4°C° 0.4 mm 2 mps 614 mmHg 93%
    13:00 -4°C° 0.4 mm 2 mps 614 mmHg 93%
    14:00 -4°C° 0.4 mm 2 mps 614 mmHg 93%
    15:00 -4°C° 0.2 mm 2 mps 614 mmHg 93%
    16:00 -5°C° 0.2 mm 2 mps 614 mmHg 93%
    17:00 -5°C° 0.2 mm 2 mps 614 mmHg 93%
    18:00 -6°C° 0.3 mm 2 mps 615 mmHg 93%
    19:00 -6°C° 0.3 mm 2 mps 615 mmHg 94%
    20:00 -7°C° 0.3 mm 2 mps 615 mmHg 95%
    21:00 -7°C° 0.1 mm 2 mps 615 mmHg 94%
    22:00 -7°C° 0.1 mm 1 mps 615 mmHg 94%
    23:00 -7°C° 0.1 mm 1 mps 615 mmHg 93%
    Show more